Weather History for Nacogdoches, TX

Change the Weather History Date:

Sunday, March 4, 2012

  Actual Average Record
Temperature  
Mean Temperature 50 °F -  
Max Temperature 69 °F 63 °F 77 °F (2013)
Min Temperature 32 °F 42 °F 15 °F (2002)
Degree Days  
Heating Degree Days 14    
Moisture  
Dew Point 29 °F    
Average Humidity 50    
Maximum Humidity 87    
Minimum Humidity 20    
Precipitation  
Precipitation 0.00 in - - ()
Sea Level Pressure  
Sea Level Pressure 30.18 in    
Wind  
Wind Speed 3 mph (WSW)    
Max Wind Speed 14 mph    
Max Gust Speed 17 mph    
Visibility 10 miles    
Events      
Averages and records for this station are not official NWS values.
T = Trace of Precipitation, MM = Missing Value Source: NWS Daily Summary

Daily Weather History Graph

Daily Weather History Graph

Search for Another Location

Airport:

Trip Planner

Search our weather history database for the weather conditions in past years. The results will help you decide how hot, cold, wet, or windy it might be!

Date:

Astronomy

Mar. 04, 2012 Rise Set
Actual Time 6:41 AM CST 6:19 PM CST
Civil Twilight 6:17 AM CST 6:43 PM CST
Nautical Twilight 5:49 AM CST 7:12 PM CST
Astronomical Twilight 5:21 AM CST 7:40 PM CST
Moon 2:44 PM CST (3/4) 3:49 AM CST (3/4)
Length of Visible Light 12h 26m
Length of Day
11h 37m
Waxing Gibbous, 84% of the Moon is Illuminated
Mar 4
Waxing Gibbous
Mar 8
Full
Mar 14
Last Quarter
Mar 22
New
Mar 30
First Quarter

Hourly Weather History & Observations

Time (CST) Temp. Dew Point Humidity Pressure Visibility Wind Dir Wind Speed Gust Speed Precip Events Conditions
12:15 AM 37.4 °F 30.2 °F 75% 30.17 in 10.0 mi Calm Calm - N/A   Clear
12:35 AM 37.4 °F 30.2 °F 75% 30.17 in 10.0 mi Calm Calm - N/A   Clear
12:55 AM 35.6 °F 30.2 °F 81% 30.17 in 10.0 mi Calm Calm - N/A   Clear
1:15 AM 37.4 °F 30.2 °F 75% 30.17 in 10.0 mi Calm Calm - N/A   Clear
1:35 AM 35.6 °F 30.2 °F 81% 30.17 in 10.0 mi Calm Calm - N/A   Clear
1:55 AM 35.6 °F 30.2 °F 81% 30.16 in 10.0 mi Calm Calm - N/A   Clear
2:15 AM 33.8 °F 28.4 °F 81% 30.15 in 10.0 mi Calm Calm - N/A   Clear
2:35 AM 33.8 °F 28.4 °F 81% 30.15 in 10.0 mi Calm Calm - N/A   Clear
2:55 AM 33.8 °F 28.4 °F 81% 30.15 in 10.0 mi Calm Calm - N/A   Clear
3:15 AM 33.8 °F 28.4 °F 81% 30.15 in 10.0 mi Calm Calm - N/A   Clear
3:35 AM 33.8 °F 28.4 °F 81% 30.15 in 10.0 mi Calm Calm - N/A   Clear
3:55 AM 33.8 °F 28.4 °F 81% 30.15 in 10.0 mi Calm Calm - N/A   Clear
4:15 AM 33.8 °F 28.4 °F 81% 30.15 in 10.0 mi Calm Calm - N/A   Clear
4:35 AM 33.8 °F 28.4 °F 81% 30.15 in 10.0 mi Calm Calm - N/A   Clear
4:55 AM 33.8 °F 28.4 °F 81% 30.14 in 10.0 mi Calm Calm - N/A   Clear
5:15 AM 33.8 °F 28.4 °F 81% 30.16 in 10.0 mi Calm Calm - N/A   Clear
5:35 AM 32.0 °F 26.6 °F 80% 30.16 in 10.0 mi Calm Calm - N/A   Clear
5:55 AM 33.8 °F 28.4 °F 81% 30.17 in 10.0 mi Calm Calm - N/A   Clear
6:15 AM 32.0 °F 28.4 °F 87% 30.17 in 10.0 mi Calm Calm - N/A   Clear
6:35 AM 33.8 °F 28.4 °F 81% 30.19 in 10.0 mi Calm Calm - N/A   Clear
6:55 AM 37.4 °F 28.4 °F 70% 30.18 in 10.0 mi Calm Calm - N/A   Clear
7:15 AM 39.2 °F 28.4 °F 65% 30.19 in 10.0 mi Calm Calm - N/A   Clear
7:35 AM 39.2 °F 30.2 °F 70% 30.20 in 10.0 mi Calm Calm - N/A   Clear
7:55 AM 42.8 °F 30.2 °F 61% 30.21 in 10.0 mi Calm Calm - N/A   Clear
8:15 AM 44.6 °F 30.2 °F 57% 30.21 in 10.0 mi Calm Calm - N/A   Clear
8:35 AM 48.2 °F 32.0 °F 54% 30.22 in 10.0 mi West 4.6 mph - N/A   Clear
8:55 AM 51.8 °F 33.8 °F 50% 30.22 in 10.0 mi WSW 5.8 mph - N/A   Clear
9:15 AM 53.6 °F 32.0 °F 44% 30.23 in 10.0 mi West 4.6 mph - N/A   Clear
9:35 AM 55.4 °F 33.8 °F 44% 30.24 in 10.0 mi West 8.1 mph - N/A   Clear
9:55 AM 57.2 °F 33.8 °F 41% 30.23 in 10.0 mi West 6.9 mph - N/A   Clear
10:15 AM 59.0 °F 32.0 °F 36% 30.24 in 10.0 mi WNW 13.8 mph 17.3 mph N/A   Clear
10:35 AM 60.8 °F 32.0 °F 34% 30.23 in 10.0 mi West 9.2 mph - N/A   Clear
10:55 AM 62.6 °F 30.2 °F 30% 30.23 in 10.0 mi West 11.5 mph - N/A   Clear
11:15 AM 62.6 °F 30.2 °F 30% 30.23 in 10.0 mi WSW 5.8 mph - N/A   Clear
11:35 AM 64.4 °F 28.4 °F 26% 30.23 in 10.0 mi West 8.1 mph - N/A   Clear
11:55 AM 66.2 °F 30.2 °F 26% 30.22 in 10.0 mi SW 9.2 mph - N/A   Clear
12:15 PM 66.2 °F 30.2 °F 26% 30.21 in 10.0 mi WSW 10.4 mph - N/A   Clear
12:35 PM 66.2 °F 28.4 °F 24% 30.21 in 10.0 mi NW 12.7 mph - N/A   Clear
12:55 PM 66.2 °F 28.4 °F 24% 30.20 in 10.0 mi West 8.1 mph - N/A   Clear
1:15 PM 68.0 °F 28.4 °F 23% 30.19 in 10.0 mi WNW 5.8 mph - N/A   Clear
1:35 PM 68.0 °F 30.2 °F 24% 30.17 in 10.0 mi SSW 6.9 mph - N/A   Clear
1:55 PM 68.0 °F 28.4 °F 23% 30.17 in 10.0 mi SW 10.4 mph - N/A   Clear
2:15 PM 69.8 °F 28.4 °F 21% 30.16 in 10.0 mi SW 9.2 mph - N/A   Clear
2:35 PM 69.8 °F 28.4 °F 21% 30.15 in 10.0 mi SSW 8.1 mph - N/A   Clear
2:55 PM 69.8 °F 28.4 °F 21% 30.14 in 10.0 mi WSW 5.8 mph - N/A   Clear
3:15 PM 69.8 °F 28.4 °F 21% 30.14 in 10.0 mi SW 5.8 mph - N/A   Clear
3:35 PM 69.8 °F 28.4 °F 21% 30.14 in 10.0 mi WSW 6.9 mph - N/A   Clear
3:55 PM 69.8 °F 28.4 °F 21% 30.14 in 10.0 mi WSW 8.1 mph - N/A   Clear
4:15 PM 69.8 °F 26.6 °F 20% 30.14 in 10.0 mi West 5.8 mph 16.1 mph N/A   Clear
4:35 PM 69.8 °F 26.6 °F 20% 30.14 in 10.0 mi West 10.4 mph - N/A   Clear
4:55 PM 69.8 °F 26.6 °F 20% 30.14 in 10.0 mi SW 10.4 mph - N/A   Clear
5:15 PM 69.8 °F 26.6 °F 20% 30.14 in 10.0 mi West 8.1 mph - N/A   Clear
5:35 PM 69.8 °F 26.6 °F 20% 30.14 in 10.0 mi West 10.4 mph - N/A   Clear
5:55 PM 66.2 °F 26.6 °F 23% 30.14 in 10.0 mi West 4.6 mph - N/A   Clear
6:15 PM 66.2 °F 26.6 °F 23% 30.15 in 10.0 mi WSW 3.5 mph - N/A   Clear
6:35 PM 64.4 °F 26.6 °F 24% 30.15 in 10.0 mi Calm Calm - N/A   Clear
6:55 PM 60.8 °F 28.4 °F 29% 30.15 in 10.0 mi WSW 4.6 mph - N/A   Clear
7:15 PM 57.2 °F 28.4 °F 33% 30.16 in 10.0 mi Calm Calm - N/A   Clear
7:35 PM 53.6 °F 32.0 °F 44% 30.17 in 10.0 mi Calm Calm - N/A   Clear
7:55 PM 50.0 °F 35.6 °F 58% 30.17 in 10.0 mi Calm Calm - N/A   Clear
8:15 PM 51.8 °F 30.2 °F 44% 30.17 in 10.0 mi Calm Calm - N/A   Clear
8:35 PM 50.0 °F 28.4 °F 43% 30.19 in 10.0 mi Calm Calm - N/A   Clear
8:55 PM 50.0 °F 30.2 °F 47% 30.19 in 10.0 mi Calm Calm - N/A   Clear
9:15 PM 48.2 °F 30.2 °F 50% 30.20 in 10.0 mi Calm Calm - N/A   Clear
9:55 PM 44.6 °F 35.6 °F 71% 30.21 in 10.0 mi Calm Calm - N/A   Clear
10:15 PM 46.4 °F 37.4 °F 71% 30.21 in 10.0 mi Calm Calm - N/A   Clear
10:35 PM 46.4 °F 35.6 °F 66% 30.22 in 10.0 mi Calm Calm - N/A   Clear
10:55 PM 46.4 °F 33.8 °F 62% 30.22 in 10.0 mi Calm Calm - N/A   Clear
11:15 PM 48.2 °F 33.8 °F 58% 30.22 in 10.0 mi Calm Calm - N/A   Clear
11:35 PM 50.0 °F 30.2 °F 47% 30.22 in 10.0 mi SW 3.5 mph - N/A   Clear
11:55 PM 53.6 °F 30.2 °F 41% 30.22 in 10.0 mi WSW 3.5 mph - N/A   Clear